Temp
-13 -14 -14 -15 -15 -16 -16 -16 -16 -16 -17 -17 -17 -17 -17 -18 -18 -18 -18 -18 -18 -18 -19 -19 -20 -20 -19 -20 -20 -20 -21 -21 -23 -24 -24 -24 -25 -26
-13 -14 -14 -15 -16 -16 -16 -16 -16 -17 -17 -17 -17 -17 -17 -18 -18 -18 -18 -18 -18 -19 -19 -19 -20 -20 -20 -20 -20 -21 -21 -22 -23 -24 -24 -24 -25 -26
-13 -13 -14 -15 -16 -16 -16 -16 -16 -16 -17 -17 -17 -17 -18 -18 -18 -18 -18 -18 -19 -19 -19 -20 -20 -20 -20 -20 -20 -21 -21 -22 -23 -24 -24 -24 -25 -26
-13 -14 -14 -16 -16 -17 -16 -17 -17 -16 -16 -17 -17 -17 -17 -18 -18 -19 -19 -19 -19 -19 -19 -20 -20 -20 -20 -21 -21 -21 -22 -22 -23 -24 -25 -24 -25 -26
-13 -14 -14 -15 -16 -16 -16 -17 -17 -17 -17 -17 -17 -18 -18 -18 -18 -18 -19 -19 -19 -19 -19 -20 -20 -20 -20 -21 -21 -21 -22 -22 -23 -24 -25 -25 -25 -26
-14 -14 -15 -15 -16 -16 -16 -16 -17 -17 -17 -17 -17 -18 -18 -18 -18 -19 -19 -19 -19 -19 -20 -20 -20 -21 -21 -21 -21 -22 -22 -22 -23 -24 -25 -25 -25 -26
-14 -14 -15 -15 -16 -16 -16 -16 -16 -17 -17 -17 -17 -18 -18 -18 -18 -19 -19 -19 -19 -20 -20 -20 -21 -21 -21 -21 -22 -22 -22 -22 -23 -24 -25 -25 -26 -26
-14 -14 -16 -16 -16 -16 -16 -16 -17 -17 -17 -17 -17 -18 -18 -18 -19 -19 -19 -19 -19 -19 -20 -20 -21 -21 -21 -22 -22 -22 -22 -23 -23 -23 -24 -25 -26 -26
-14 -15 -16 -16 -16 -16 -16 -16 -16 -17 -17 -17 -17 -18 -18 -18 -19 -19 -19 -19 -19 -20 -20 -20 -20 -21 -21 -21 -22 -22 -22 -23 -23 -23 -24 -25 -25 -26
-15 -15 -16 -16 -16 -16 -16 -16 -16 -17 -17 -17 -17 -18 -18 -18 -18 -19 -19 -19 -20 -20 -20 -20 -21 -21 -21 -22 -22 -22 -22 -23 -23 -23 -24 -24 -25 -26
-15 -16 -16 -16 -16 -16 -16 -16 -16 -16 -17 -17 -17 -18 -18 -18 -18 -19 -19 -19 -19 -20 -20 -20 -21 -21 -22 -22 -22 -22 -22 -23 -23 -23 -23 -24 -24 -25
-15 -16 -16 -16 -16 -17 -16 -17 -16 -17 -17 -17 -17 -18 -18 -18 -18 -19 -19 -19 -19 -20 -20 -20 -21 -21 -22 -22 -22 -22 -22 -23 -23 -23 -23 -23 -24 -24
-16 -16 -16 -16 -16 -16 -16 -16 -16 -17 -17 -17 -18 -18 -18 -18 -18 -19 -19 -19 -19 -20 -20 -20 -21 -21 -22 -22 -23 -22 -22 -23 -23 -23 -23 -23 -23 -24
-16 -16 -16 -16 -16 -17 -17 -16 -17 -17 -17 -17 -18 -18 -18 -18 -18 -19 -19 -19 -19 -20 -20 -20 -21 -21 -22 -22 -22 -22 -22 -23 -23 -23 -23 -23 -23 -24
-16 -16 -16 -17 -17 -17 -17 -17 -17 -17 -17 -17 -18 -18 -18 -18 -18 -19 -19 -19 -19 -20 -20 -20 -21 -21 -22 -22 -22 -22 -23 -23 -23 -23 -23 -23 -23 -24
-16 -17 -17 -17 -17 -17 -17 -17 -17 -17 -17 -17 -17 -18 -18 -18 -18 -19 -19 -19 -19 -20 -20 -20 -21 -21 -22 -22 -22 -22 -22 -23 -23 -23 -23 -23 -24 -24
-16 -17 -17 -17 -17 -17 -17 -17 -17 -17 -17 -17 -17 -18 -18 -18 -18 -19 -19 -19 -19 -20 -20 -20 -21 -21 -21 -22 -22 -22 -22 -22 -22 -23 -23 -23 -23 -24
-17 -17 -18 -17 -17 -17 -17 -17 -17 -17 -17 -17 -18 -18 -18 -18 -19 -19 -19 -19 -19 -19 -20 -20 -21 -21 -21 -21 -21 -22 -22 -23 -23 -23 -23 -23 -23 -23
-17 -18 -18 -18 -17 -17 -17 -17 -18 -18 -17 -18 -18 -18 -18 -18 -19 -19 -19 -19 -19 -20 -20 -20 -21 -21 -21 -22 -22 -21 -22 -22 -22 -22 -23 -23 -23 -24
-18 -18 -18 -18 -18 -18 -18 -17 -18 -18 -18 -18 -18 -18 -18 -18 -19 -19 -19 -19 -19 -19 -20 -20 -20 -21 -21 -22 -22 -22 -22 -22 -22 -22 -23 -23 -23 -23
-18 -17 -18 -18 -18 -18 -18 -18 -18 -18 -18 -18 -18 -18 -18 -18 -18 -19 -19 -19 -19 -19 -20 -20 -20 -21 -21 -21 -22 -22 -22 -22 -22 -23 -23 -23 -23 -23
-17 -17 -17 -17 -17 -17 -18 -18 -18 -18 -18 -18 -18 -18 -18 -18 -18 -19 -19 -19 -19 -19 -20 -21 -21 -21 -21 -21 -22 -22 -23 -22 -22 -22 -22 -23 -23 -23
-18 -18 -18 -18 -18 -18 -18 -18 -18 -18 -18 -18 -18 -18 -19 -19 -19 -19 -19 -20 -19 -20 -20 -21 -21 -21 -21 -21 -21 -22 -22 -22 -22 -22 -23 -23 -23 -23
Height
5814 5812 5810 5807 5805 5803 5804 5803 5801 5796 5793 5790 5789 5786 5783 5779 5773 5769 5764 5757 5751 5744 5736 5729 5721 5714 5706 5696 5687 5677 5666 5653 5641 5629 5617 5603 5590 5580
5811 5809 5806 5804 5801 5800 5798 5799 5797 5795 5791 5789 5786 5784 5779 5775 5771 5764 5760 5754 5747 5741 5734 5727 5719 5711 5703 5694 5685 5674 5664 5651 5640 5628 5616 5602 5589 5579
5807 5805 5803 5801 5798 5796 5795 5795 5793 5791 5788 5785 5782 5780 5776 5772 5767 5762 5756 5751 5744 5738 5732 5724 5716 5709 5701 5692 5683 5673 5662 5651 5639 5627 5616 5602 5589 5579
5803 5801 5799 5797 5795 5793 5792 5791 5789 5786 5783 5780 5778 5775 5771 5767 5762 5758 5753 5747 5741 5736 5729 5721 5714 5706 5698 5690 5681 5672 5662 5651 5639 5627 5615 5605 5591 5580
5799 5797 5795 5793 5791 5790 5788 5787 5787 5784 5780 5778 5774 5771 5768 5764 5760 5754 5748 5743 5737 5732 5726 5719 5711 5704 5696 5689 5681 5671 5662 5652 5640 5628 5618 5606 5593 5582
5794 5793 5791 5790 5787 5786 5785 5784 5783 5781 5777 5774 5771 5768 5764 5760 5755 5751 5746 5741 5735 5729 5722 5715 5708 5702 5695 5687 5679 5671 5662 5652 5640 5630 5619 5608 5596 5584
5790 5789 5787 5786 5784 5782 5782 5780 5778 5776 5774 5771 5767 5763 5759 5756 5751 5747 5742 5737 5732 5725 5719 5712 5706 5700 5693 5685 5677 5670 5661 5652 5642 5631 5620 5610 5599 5588
5784 5784 5783 5781 5780 5779 5778 5776 5773 5771 5769 5766 5763 5759 5755 5751 5747 5743 5739 5733 5727 5723 5716 5711 5704 5697 5691 5684 5677 5670 5662 5652 5643 5634 5623 5612 5602 5592
5779 5780 5778 5777 5776 5774 5773 5771 5769 5766 5764 5761 5758 5755 5751 5747 5743 5738 5734 5729 5724 5719 5713 5708 5702 5696 5689 5683 5676 5669 5661 5653 5644 5635 5625 5615 5605 5596
5774 5775 5772 5772 5771 5770 5768 5766 5764 5761 5759 5756 5753 5750 5746 5742 5738 5734 5730 5725 5720 5715 5709 5703 5698 5692 5686 5681 5674 5667 5659 5652 5644 5636 5627 5618 5609 5600
5768 5769 5767 5766 5765 5764 5762 5761 5758 5755 5753 5751 5748 5745 5741 5738 5733 5729 5725 5721 5716 5712 5706 5699 5693 5687 5682 5676 5671 5665 5658 5651 5645 5637 5628 5620 5612 5603
5762 5762 5761 5760 5759 5758 5756 5755 5752 5750 5747 5745 5743 5740 5736 5733 5729 5725 5721 5717 5712 5708 5702 5696 5690 5684 5679 5673 5668 5662 5656 5650 5643 5636 5629 5621 5613 5606
5756 5755 5754 5753 5753 5752 5750 5747 5746 5743 5741 5739 5737 5734 5730 5727 5723 5720 5716 5712 5707 5703 5698 5693 5687 5681 5675 5670 5666 5659 5654 5648 5642 5635 5629 5621 5613 5606
5749 5749 5747 5747 5746 5746 5743 5741 5739 5737 5734 5732 5730 5728 5725 5721 5718 5714 5711 5706 5702 5699 5694 5689 5683 5677 5672 5666 5661 5656 5650 5646 5640 5634 5628 5621 5614 5606
5742 5742 5741 5740 5740 5738 5736 5734 5733 5731 5728 5726 5724 5721 5718 5715 5711 5708 5704 5701 5697 5693 5689 5684 5679 5673 5667 5662 5657 5653 5648 5643 5638 5631 5625 5620 5613 5606
5734 5735 5734 5732 5732 5731 5729 5727 5726 5724 5722 5719 5717 5715 5711 5708 5705 5702 5698 5695 5691 5687 5682 5678 5673 5668 5662 5657 5652 5648 5643 5638 5634 5629 5622 5617 5612 5605
5726 5727 5726 5724 5722 5722 5721 5719 5718 5717 5715 5712 5710 5708 5705 5701 5698 5694 5691 5688 5684 5681 5676 5672 5667 5662 5657 5651 5647 5643 5638 5634 5629 5624 5619 5613 5609 5603
5718 5718 5716 5714 5713 5712 5712 5710 5709 5708 5706 5705 5703 5700 5697 5693 5690 5687 5683 5681 5678 5674 5670 5666 5662 5657 5652 5647 5641 5637 5633 5629 5624 5619 5614 5610 5604 5601
5709 5707 5705 5705 5704 5703 5702 5701 5700 5697 5696 5696 5694 5691 5688 5685 5682 5678 5675 5672 5670 5666 5662 5657 5654 5651 5646 5641 5636 5630 5626 5621 5617 5612 5608 5604 5600 5595
5696 5696 5695 5694 5693 5692 5691 5690 5688 5687 5686 5685 5684 5682 5679 5676 5673 5670 5665 5662 5661 5657 5653 5648 5644 5642 5638 5634 5629 5623 5619 5614 5611 5604 5599 5596 5594 5588
5684 5684 5684 5683 5682 5681 5682 5680 5678 5677 5675 5674 5673 5671 5668 5665 5663 5660 5656 5653 5652 5649 5645 5640 5635 5633 5630 5626 5622 5617 5611 5606 5601 5597 5591 5588 5585 5582
5673 5673 5671 5672 5671 5671 5670 5669 5669 5666 5664 5662 5660 5658 5656 5654 5652 5649 5646 5644 5641 5638 5635 5630 5625 5621 5620 5616 5612 5608 5603 5596 5591 5588 5584 5579 5576 5574
5659 5659 5659 5660 5659 5659 5659 5657 5656 5654 5652 5649 5647 5645 5643 5641 5639 5638 5635 5631 5629 5627 5623 5620 5616 5611 5609 5605 5601 5598 5594 5588 5582 5578 5576 5570 5566 5563
Wind_Speed
18 20 21 21 20 19 14 15 15 19 20 22 21 24 25 26 30 32 34 35 36 37 39 43 41 40 43 47 50 52 54 54 53 49 54 53 49 42
18 20 21 20 18 16 17 16 18 19 19 21 21 22 25 26 28 33 34 35 35 36 38 42 39 39 42 45 49 51 52 53 51 49 53 53 48 41
18 20 21 19 16 16 18 18 20 21 21 22 23 23 24 26 28 32 34 34 34 36 37 40 37 38 40 42 47 49 50 52 50 49 53 53 48 41
19 19 20 17 17 17 19 19 21 23 22 23 25 25 26 27 29 31 32 34 34 35 36 40 35 36 38 40 44 47 49 51 49 48 52 53 49 43
18 18 18 17 18 18 20 19 21 23 24 24 25 26 27 28 29 30 31 32 33 35 36 39 35 34 36 38 41 44 46 49 49 47 48 52 51 45
18 18 18 16 16 16 17 20 22 23 24 25 26 27 27 27 28 29 30 31 31 34 35 38 35 33 34 36 37 40 44 48 51 49 46 49 52 49
18 18 16 16 16 16 18 21 24 25 25 26 27 28 28 29 30 30 30 32 31 33 33 37 36 32 32 34 34 36 40 45 51 50 48 47 49 52
19 18 17 17 17 19 19 22 24 25 26 28 28 28 29 29 30 31 31 31 32 34 35 35 35 31 30 31 32 34 36 42 47 50 48 47 46 49
20 18 17 19 19 21 20 22 24 25 27 29 29 28 29 29 30 31 31 31 32 33 36 35 35 34 31 30 30 31 33 38 43 46 46 46 46 46
21 18 20 21 23 23 23 23 25 26 27 29 30 29 29 29 30 30 31 31 32 33 36 36 36 35 33 30 30 31 31 34 39 42 43 45 45 46
22 21 22 21 22 23 24 25 27 28 29 30 30 30 29 29 30 31 31 31 32 34 35 36 37 35 33 31 29 31 31 33 35 38 39 41 43 44
22 21 23 24 24 24 26 25 28 29 30 30 30 30 30 30 31 31 31 32 33 34 35 36 37 36 34 31 29 29 31 31 32 34 37 38 41 42
22 23 23 24 24 26 26 27 28 29 31 31 29 30 31 31 31 31 32 32 33 34 35 37 36 35 35 33 28 28 30 30 30 32 35 36 38 42
24 22 24 24 24 25 27 28 27 29 32 31 31 31 31 31 31 31 32 33 33 34 35 36 35 35 36 33 29 26 28 30 30 31 33 34 34 37
23 22 24 24 24 26 28 29 29 30 32 32 31 31 32 32 32 32 32 33 34 34 35 36 36 35 36 33 31 27 28 30 30 32 32 32 33 33
23 21 23 26 26 26 29 31 31 31 30 30 30 31 31 32 32 32 33 33 34 33 34 35 33 34 36 32 33 29 29 29 30 30 32 31 32 32
24 21 22 26 29 29 30 32 32 31 31 32 30 30 32 33 33 33 34 35 35 36 36 35 33 31 32 31 31 32 31 33 32 30 30 32 31 31
25 23 24 28 30 30 31 32 33 33 31 31 30 30 32 33 35 36 37 37 36 38 38 38 35 31 28 29 28 30 34 33 36 35 33 31 32 30
24 27 30 30 31 32 32 32 33 35 34 33 32 30 30 33 35 37 39 40 37 38 36 37 36 33 30 28 28 30 32 34 37 38 35 33 32 32
30 31 33 33 32 32 33 33 34 36 37 37 34 34 33 35 37 38 40 43 39 38 35 37 37 33 31 30 29 31 34 36 38 37 35 33 33 33
37 38 36 35 34 33 34 34 34 35 38 39 38 37 37 39 39 40 43 43 40 37 36 36 38 37 34 33 33 35 33 38 37 38 37 31 31 31
42 43 42 41 38 37 37 39 41 41 42 44 44 42 41 43 43 44 44 43 40 36 36 37 38 40 36 36 36 35 35 36 37 36 33 33 31 30
43 44 44 41 41 40 42 44 46 48 50 47 50 48 47 47 47 46 46 44 42 37 37 39 39 41 38 37 38 38 36 35 36 38 32 33 33 33
Wind_Direction
315 314 313 311 311 308 303 304 307 312 318 317 315 314 318 324 331 335 339 340 341 344 347 347 344 345 347 350 352 352 352 353 353 353 357 354 351 354
315 313 313 310 307 303 303 310 307 311 311 311 312 315 320 328 331 334 339 340 341 345 348 347 344 347 348 351 352 353 355 356 355 356 0 359 356 358
313 312 312 310 304 301 304 312 307 312 314 314 317 322 322 327 332 334 336 338 340 344 346 347 344 346 349 352 353 353 358 359 358 360 3 3 0 1
311 310 312 308 304 302 306 309 307 312 315 317 318 320 322 328 331 332 335 337 339 342 345 347 344 347 350 354 354 355 360 1 1 2 5 7 5 5
307 307 307 307 308 301 304 305 308 311 314 316 315 318 321 324 328 332 335 336 338 342 345 348 344 347 352 354 355 359 2 3 5 5 6 11 11 9
302 301 301 308 307 307 304 309 309 310 313 314 315 317 319 324 328 331 332 334 337 340 343 348 344 344 350 354 356 2 5 7 8 8 8 10 16 14
297 295 297 302 308 309 307 310 310 312 314 314 316 318 321 324 327 330 332 333 337 339 341 346 347 342 348 354 358 1 5 8 8 9 10 10 14 18
292 291 290 296 301 303 304 306 308 312 314 314 316 317 320 324 326 329 330 335 335 339 342 344 347 343 345 351 355 356 4 10 9 10 12 13 14 17
288 289 289 294 298 300 305 305 305 308 313 314 316 317 320 323 326 328 330 333 335 338 341 344 345 344 339 346 350 354 1 7 7 8 13 14 15 15
282 283 286 291 294 296 300 299 300 303 308 312 315 318 320 323 325 326 328 331 334 338 340 341 342 343 341 339 347 351 357 3 6 6 11 13 15 17
279 278 282 287 292 294 297 299 298 299 303 308 313 316 319 322 324 325 327 329 332 336 338 339 341 340 339 338 343 349 350 357 4 5 5 11 13 14
276 274 278 285 292 294 298 296 295 300 300 303 309 312 317 321 323 324 325 328 331 335 336 339 340 339 338 337 337 344 344 350 359 3 3 6 8 8
274 270 275 283 291 295 299 298 297 298 298 299 305 308 313 319 321 322 323 327 329 333 335 337 339 338 338 334 334 338 341 343 351 359 360 2 6 5
273 270 274 281 289 296 298 297 299 297 298 301 301 305 311 315 319 320 323 325 328 331 334 335 336 339 338 334 332 331 338 340 342 346 353 357 2 3
269 269 273 280 288 292 294 296 298 300 303 301 301 304 307 311 314 317 318 322 325 329 330 332 336 337 338 334 330 325 331 337 338 339 344 350 354 1
264 266 274 280 283 287 288 291 295 299 302 303 303 302 304 307 310 312 314 318 320 323 326 329 334 334 336 333 333 324 322 327 331 335 334 340 344 351
260 264 269 275 278 281 284 289 293 298 300 302 303 302 300 304 306 307 310 314 317 319 321 323 327 330 333 331 334 327 322 325 329 326 328 330 337 340
264 265 264 267 273 278 283 287 291 294 295 298 300 295 296 300 303 306 307 312 316 317 319 319 321 325 327 328 332 330 331 323 325 322 323 324 326 333
262 261 262 265 270 276 281 285 287 288 290 291 293 291 291 293 296 299 303 306 310 312 315 312 315 320 320 322 323 325 330 327 323 320 319 319 320 323
254 256 261 265 270 274 277 280 282 285 287 287 288 288 287 287 289 292 297 301 307 308 307 307 308 313 312 314 314 314 321 325 325 318 312 313 315 317
255 256 258 263 268 270 275 278 280 284 286 285 284 282 282 283 286 289 294 300 307 306 304 302 303 307 309 309 312 315 317 320 320 318 311 307 308 312
257 260 260 263 268 271 276 281 281 283 285 283 282 278 277 281 285 287 293 296 300 301 298 296 297 302 306 309 307 309 312 315 317 318 308 307 306 307
262 262 263 266 273 274 278 283 283 282 284 284 282 279 277 278 281 286 289 291 296 295 293 291 293 298 302 305 306 307 309 307 312 314 305 300 302 303